Time,TemperatureF,DewpointF,PressureIn,WindDirection,WindDirectionDegrees,WindSpeedMPH,WindSpeedGustMPH,Humidity,HourlyPrecipIn,Conditions,Clouds,dailyrainin,SoftwareType,DateUTC
2013-10-13 00:01:00,70.2,68.4,30.11,NE,40,0.0,0.0,94,0.00,,,0.00,WeatherCatV1.02B3,2013-10-13 05:01:00,
2013-10-13 00:06:00,70.2,68.4,30.11,NE,40,0.0,0.0,94,0.00,,,0.00,WeatherCatV1.02B3,2013-10-13 05:06:00,
2013-10-13 00:11:00,70.1,68.3,30.11,NE,40,0.0,0.0,94,0.00,,,0.00,WeatherCatV1.02B3,2013-10-13 05:11:00,
2013-10-13 00:16:00,70.1,68.3,30.11,NE,40,0.0,1.0,94,0.00,,,0.00,WeatherCatV1.02B3,2013-10-13 05:16:00,
2013-10-13 00:21:00,70.0,68.2,30.11,NE,40,0.0,0.0,94,0.00,,,0.00,WeatherCatV1.02B3,2013-10-13 05:21:00,
2013-10-13 00:26:00,70.0,68.2,30.10,NE,40,0.0,0.0,94,0.00,,,0.00,WeatherCatV1.02B3,2013-10-13 05:26:00,
2013-10-13 00:31:00,69.9,68.1,30.10,NE,40,0.0,0.0,94,0.00,,,0.00,WeatherCatV1.02B3,2013-10-13 05:31:00,
2013-10-13 00:36:00,69.8,68.0,30.10,NE,40,0.0,0.0,94,0.00,,,0.00,WeatherCatV1.02B3,2013-10-13 05:36:00,
2013-10-13 00:41:00,69.8,68.0,30.11,NE,40,0.0,0.0,94,0.00,,,0.00,WeatherCatV1.02B3,2013-10-13 05:41:00,
2013-10-13 00:46:00,69.7,67.9,30.11,NE,40,0.0,0.0,94,0.00,,,0.00,WeatherCatV1.02B3,2013-10-13 05:46:00,
2013-10-13 00:51:00,69.7,67.9,30.11,NE,40,0.0,0.0,94,0.00,,,0.00,WeatherCatV1.02B3,2013-10-13 05:51:00,
2013-10-13 00:56:00,69.6,67.8,30.11,NE,40,0.0,0.0,94,0.00,,,0.00,WeatherCatV1.02B3,2013-10-13 05:56:00,
2013-10-13 01:01:00,69.6,67.8,30.11,NE,40,0.0,0.0,94,0.00,,,0.00,WeatherCatV1.02B3,2013-10-13 06:01:00,
2013-10-13 01:06:00,69.5,67.7,30.11,NE,40,0.0,0.0,94,0.00,,,0.00,WeatherCatV1.02B3,2013-10-13 06:06:00,
2013-10-13 01:11:00,69.5,67.7,30.11,NE,40,0.0,0.0,94,0.00,,,0.00,WeatherCatV1.02B3,2013-10-13 06:11:00,
2013-10-13 01:16:00,69.5,67.7,30.11,NE,40,0.0,0.0,94,0.00,,,0.00,WeatherCatV1.02B3,2013-10-13 06:16:00,
2013-10-13 01:21:00,69.5,67.7,30.11,NE,40,0.0,0.0,94,0.00,,,0.00,WeatherCatV1.02B3,2013-10-13 06:21:00,
2013-10-13 01:26:00,69.4,67.6,30.11,NE,40,0.0,1.0,94,0.00,,,0.00,WeatherCatV1.02B3,2013-10-13 06:26:00,
2013-10-13 01:31:00,69.4,67.6,30.11,NE,40,0.0,0.0,94,0.00,,,0.00,WeatherCatV1.02B3,2013-10-13 06:31:00,
2013-10-13 01:36:00,69.4,67.6,30.11,NE,40,0.0,0.0,94,0.00,,,0.00,WeatherCatV1.02B3,2013-10-13 06:36:00,
2013-10-13 01:41:00,69.4,67.6,30.11,NE,40,0.0,0.0,94,0.00,,,0.00,WeatherCatV1.02B3,2013-10-13 06:41:00,
2013-10-13 01:46:00,69.3,67.5,30.11,NE,40,0.0,0.0,94,0.00,,,0.00,WeatherCatV1.02B3,2013-10-13 06:46:00,
2013-10-13 01:51:00,69.3,67.5,30.11,NE,40,0.0,0.0,94,0.00,,,0.00,WeatherCatV1.02B3,2013-10-13 06:51:00,
2013-10-13 01:56:00,69.2,67.4,30.11,NE,40,0.0,0.0,94,0.00,,,0.00,WeatherCatV1.02B3,2013-10-13 06:56:00,
2013-10-13 02:01:00,69.2,67.4,30.11,NE,40,0.0,0.0,94,0.00,,,0.00,WeatherCatV1.02B3,2013-10-13 07:01:00,
2013-10-13 02:06:00,69.2,67.4,30.11,NE,40,0.0,0.0,94,0.00,,,0.00,WeatherCatV1.02B3,2013-10-13 07:06:00,
2013-10-13 02:11:00,69.1,67.3,30.12,NE,40,0.0,0.0,94,0.00,,,0.00,WeatherCatV1.02B3,2013-10-13 07:11:00,
2013-10-13 02:16:00,69.1,67.3,30.12,NE,40,0.0,0.0,94,0.00,,,0.00,WeatherCatV1.02B3,2013-10-13 07:16:00,
2013-10-13 02:21:00,69.0,67.2,30.12,NE,40,0.0,0.0,94,0.00,,,0.00,WeatherCatV1.02B3,2013-10-13 07:21:00,
2013-10-13 02:26:00,68.9,67.1,30.12,NE,40,0.0,0.0,94,0.00,,,0.00,WeatherCatV1.02B3,2013-10-13 07:26:00,
2013-10-13 02:31:00,68.9,67.1,30.12,NE,40,0.0,0.0,94,0.00,,,0.00,WeatherCatV1.02B3,2013-10-13 07:31:00,
2013-10-13 02:36:00,68.8,67.0,30.12,NE,40,0.0,0.0,94,0.00,,,0.00,WeatherCatV1.02B3,2013-10-13 07:36:00,
2013-10-13 02:41:00,68.7,66.9,30.12,NE,40,0.0,0.0,94,0.00,,,0.00,WeatherCatV1.02B3,2013-10-13 07:41:00,
2013-10-13 02:46:00,68.6,66.8,30.12,NE,40,0.0,0.0,94,0.00,,,0.00,WeatherCatV1.02B3,2013-10-13 07:46:00,
2013-10-13 02:51:00,68.5,66.7,30.12,NE,40,0.0,0.0,94,0.00,,,0.00,WeatherCatV1.02B3,2013-10-13 07:51:00,
2013-10-13 02:56:00,68.5,66.7,30.12,NE,40,0.0,0.0,94,0.00,,,0.00,WeatherCatV1.02B3,2013-10-13 07:56:00,
2013-10-13 03:01:00,68.4,66.6,30.12,NE,40,0.0,0.0,94,0.00,,,0.00,WeatherCatV1.02B3,2013-10-13 08:01:00,
2013-10-13 03:06:00,68.4,66.9,30.11,NE,40,0.0,0.0,95,0.00,,,0.00,WeatherCatV1.02B3,2013-10-13 08:06:00,
2013-10-13 03:11:00,68.4,66.9,30.11,NE,40,0.0,0.0,95,0.00,,,0.00,WeatherCatV1.02B3,2013-10-13 08:11:00,
2013-10-13 03:16:00,68.4,66.9,30.11,NE,40,0.0,0.0,95,0.00,,,0.00,WeatherCatV1.02B3,2013-10-13 08:16:00,
2013-10-13 03:21:00,68.5,67.0,30.12,NE,40,0.0,0.0,95,0.00,,,0.00,WeatherCatV1.02B3,2013-10-13 08:21:00,
2013-10-13 03:26:00,68.5,67.0,30.11,NE,40,0.0,0.0,95,0.00,,,0.00,WeatherCatV1.02B3,2013-10-13 08:26:00,
2013-10-13 03:31:00,68.5,67.0,30.11,NE,40,0.0,0.0,95,0.00,,,0.00,WeatherCatV1.02B3,2013-10-13 08:31:00,
2013-10-13 03:36:00,68.4,66.9,30.11,NE,40,0.0,0.0,95,0.00,,,0.00,WeatherCatV1.02B3,2013-10-13 08:36:00,
2013-10-13 03:41:00,68.5,67.0,30.12,NE,40,0.0,0.0,95,0.00,,,0.00,WeatherCatV1.02B3,2013-10-13 08:41:00,
2013-10-13 03:46:00,68.5,67.0,30.12,NE,40,0.0,0.0,95,0.00,,,0.00,WeatherCatV1.02B3,2013-10-13 08:46:00,
2013-10-13 03:51:00,68.6,67.1,30.12,NE,40,0.0,0.0,95,0.00,,,0.00,WeatherCatV1.02B3,2013-10-13 08:51:00,
2013-10-13 03:56:00,68.6,67.1,30.12,NE,40,0.0,0.0,95,0.00,,,0.00,WeatherCatV1.02B3,2013-10-13 08:56:00,
2013-10-13 04:01:00,68.7,67.2,30.12,NE,40,0.0,0.0,95,0.00,,,0.00,WeatherCatV1.02B3,2013-10-13 09:01:00,
2013-10-13 04:06:00,68.8,67.3,30.11,NE,40,0.0,0.0,95,0.00,,,0.00,WeatherCatV1.02B3,2013-10-13 09:06:00,
2013-10-13 04:11:00,68.9,67.4,30.11,NE,40,0.0,0.0,95,0.00,,,0.00,WeatherCatV1.02B3,2013-10-13 09:11:00,
2013-10-13 04:16:00,68.9,67.4,30.11,NE,40,0.0,0.0,95,0.00,,,0.00,WeatherCatV1.02B3,2013-10-13 09:16:00,
2013-10-13 04:21:00,69.0,67.5,30.11,NE,40,0.0,0.0,95,0.00,,,0.00,WeatherCatV1.02B3,2013-10-13 09:21:00,
2013-10-13 04:26:00,69.0,67.5,30.11,NE,40,0.0,0.0,95,0.00,,,0.00,WeatherCatV1.02B3,2013-10-13 09:26:00,
2013-10-13 04:31:00,69.1,67.6,30.12,NE,40,0.0,0.0,95,0.00,,,0.00,WeatherCatV1.02B3,2013-10-13 09:31:00,
2013-10-13 04:36:00,69.0,67.5,30.12,NE,40,0.0,0.0,95,0.00,,,0.00,WeatherCatV1.02B3,2013-10-13 09:36:00,
2013-10-13 04:41:00,68.9,67.4,30.13,NE,40,0.0,0.0,95,0.00,,,0.00,WeatherCatV1.02B3,2013-10-13 09:41:00,
2013-10-13 04:46:00,68.8,67.3,30.13,NE,40,0.0,0.0,95,0.00,,,0.00,WeatherCatV1.02B3,2013-10-13 09:46:00,
2013-10-13 04:51:00,68.7,67.2,30.13,NE,40,0.0,0.0,95,0.00,,,0.00,WeatherCatV1.02B3,2013-10-13 09:51:00,
2013-10-13 04:56:00,68.6,67.1,30.13,NE,40,0.0,0.0,95,0.00,,,0.00,WeatherCatV1.02B3,2013-10-13 09:56:00,
2013-10-13 05:01:00,68.5,67.0,30.13,NE,40,0.0,0.0,95,0.00,,,0.00,WeatherCatV1.02B3,2013-10-13 10:01:00,
2013-10-13 05:06:00,68.4,66.9,30.13,NE,40,0.0,0.0,95,0.00,,,0.00,WeatherCatV1.02B3,2013-10-13 10:06:00,
2013-10-13 05:11:00,68.3,66.8,30.13,NE,40,0.0,0.0,95,0.00,,,0.00,WeatherCatV1.02B3,2013-10-13 10:11:00,
2013-10-13 05:16:00,68.3,66.8,30.13,NE,40,0.0,0.0,95,0.00,,,0.00,WeatherCatV1.02B3,2013-10-13 10:16:00,
2013-10-13 05:21:00,68.3,66.8,30.13,NE,40,0.0,0.0,95,0.00,,,0.00,WeatherCatV1.02B3,2013-10-13 10:21:00,
2013-10-13 05:26:00,68.3,67.1,30.13,NE,40,0.0,0.0,96,0.00,,,0.00,WeatherCatV1.02B3,2013-10-13 10:26:00,
2013-10-13 05:31:00,68.4,67.2,30.14,NE,40,0.0,0.0,96,0.00,,,0.00,WeatherCatV1.02B3,2013-10-13 10:31:00,
2013-10-13 05:36:00,68.3,67.1,30.14,NE,40,0.0,0.0,96,0.00,,,0.00,WeatherCatV1.02B3,2013-10-13 10:36:00,
2013-10-13 05:41:00,68.3,67.1,30.14,NE,40,0.0,0.0,96,0.00,,,0.00,WeatherCatV1.02B3,2013-10-13 10:41:00,
2013-10-13 05:46:00,68.3,67.1,30.14,NE,40,0.0,0.0,96,0.00,,,0.00,WeatherCatV1.02B3,2013-10-13 10:46:00,
2013-10-13 05:51:00,68.5,67.3,30.14,NE,40,0.0,0.0,96,0.00,,,0.00,WeatherCatV1.02B3,2013-10-13 10:51:00,
2013-10-13 05:56:00,68.5,67.3,30.14,NE,40,0.0,0.0,96,0.00,,,0.00,WeatherCatV1.02B3,2013-10-13 10:56:00,
2013-10-13 06:01:00,68.5,67.3,30.14,NE,40,0.0,0.0,96,0.00,,,0.00,WeatherCatV1.02B3,2013-10-13 11:01:00,
2013-10-13 06:06:00,68.5,67.3,30.15,NE,40,0.0,0.0,96,0.00,,,0.00,WeatherCatV1.02B3,2013-10-13 11:06:00,
2013-10-13 06:11:00,68.5,67.3,30.14,NE,40,0.0,0.0,96,0.00,,,0.00,WeatherCatV1.02B3,2013-10-13 11:11:00,
2013-10-13 06:16:00,68.6,67.4,30.15,NE,40,0.0,0.0,96,0.00,,,0.00,WeatherCatV1.02B3,2013-10-13 11:16:00,
2013-10-13 06:21:00,68.7,67.5,30.15,NE,40,0.0,0.0,96,0.00,,,0.00,WeatherCatV1.02B3,2013-10-13 11:21:00,
2013-10-13 06:26:00,68.7,67.5,30.15,NE,40,0.0,0.0,96,0.00,,,0.00,WeatherCatV1.02B3,2013-10-13 11:26:00,
2013-10-13 06:31:00,68.7,67.5,30.14,NE,40,0.0,0.0,96,0.00,,,0.00,WeatherCatV1.02B3,2013-10-13 11:31:00,
2013-10-13 06:36:00,68.6,67.4,30.15,NE,40,0.0,0.0,96,0.00,,,0.00,WeatherCatV1.02B3,2013-10-13 11:36:00,
2013-10-13 06:41:00,68.5,67.3,30.15,NE,40,0.0,0.0,96,0.00,,,0.00,WeatherCatV1.02B3,2013-10-13 11:41:00,
2013-10-13 06:46:00,68.4,67.2,30.15,NE,40,0.0,0.0,96,0.00,,,0.00,WeatherCatV1.02B3,2013-10-13 11:46:00,
2013-10-13 06:51:00,68.3,67.1,30.15,NE,40,0.0,0.0,96,0.00,,,0.00,WeatherCatV1.02B3,2013-10-13 11:51:00,
2013-10-13 06:56:00,68.3,67.1,30.15,NE,40,0.0,0.0,96,0.00,,,0.00,WeatherCatV1.02B3,2013-10-13 11:56:00,
2013-10-13 07:01:00,68.3,67.1,30.15,NE,40,0.0,0.0,96,0.00,,,0.00,WeatherCatV1.02B3,2013-10-13 12:01:00,
2013-10-13 07:06:00,68.2,67.0,30.15,NE,40,0.0,0.0,96,0.00,,,0.00,WeatherCatV1.02B3,2013-10-13 12:06:00,
2013-10-13 07:11:00,68.1,66.9,30.16,NE,40,0.0,0.0,96,0.00,,,0.00,WeatherCatV1.02B3,2013-10-13 12:11:00,
2013-10-13 07:16:00,68.0,66.8,30.16,NE,40,0.0,0.0,96,0.00,,,0.00,WeatherCatV1.02B3,2013-10-13 12:16:00,
2013-10-13 07:21:00,68.0,66.8,30.16,NE,40,0.0,0.0,96,0.00,,,0.00,WeatherCatV1.02B3,2013-10-13 12:21:00,
2013-10-13 07:26:00,67.9,66.7,30.16,NE,40,0.0,0.0,96,0.00,,,0.00,WeatherCatV1.02B3,2013-10-13 12:26:00,
2013-10-13 07:31:00,68.0,66.8,30.17,NE,40,0.0,0.0,96,0.00,,,0.00,WeatherCatV1.02B3,2013-10-13 12:31:00,
2013-10-13 07:36:00,68.0,66.8,30.17,NE,40,0.0,0.0,96,0.00,,,0.00,WeatherCatV1.02B3,2013-10-13 12:36:00,
2013-10-13 07:41:00,68.1,66.9,30.17,NE,40,0.0,2.0,96,0.00,,,0.00,WeatherCatV1.02B3,2013-10-13 12:41:00,
2013-10-13 07:46:00,68.2,67.0,30.17,NE,40,0.0,1.0,96,0.00,,,0.00,WeatherCatV1.02B3,2013-10-13 12:46:00,
2013-10-13 07:51:00,68.2,67.0,30.17,NE,40,0.0,0.0,96,0.00,,,0.00,WeatherCatV1.02B3,2013-10-13 12:51:00,
2013-10-13 07:56:00,68.3,67.1,30.17,NE,40,0.0,1.0,96,0.00,,,0.00,WeatherCatV1.02B3,2013-10-13 12:56:00,
2013-10-13 08:01:00,68.3,67.1,30.17,NE,40,0.0,0.0,96,0.00,,,0.00,WeatherCatV1.02B3,2013-10-13 13:01:00,
2013-10-13 08:06:00,68.3,67.1,30.18,North,11,0.0,0.0,96,0.00,,,0.00,WeatherCatV1.02B3,2013-10-13 13:06:00,
2013-10-13 08:11:00,68.3,67.1,30.18,North,10,0.0,0.0,96,0.00,,,0.00,WeatherCatV1.02B3,2013-10-13 13:11:00,
2013-10-13 08:16:00,68.2,67.0,30.18,NNW,338,0.0,2.0,96,0.00,,,0.00,WeatherCatV1.02B3,2013-10-13 13:16:00,
2013-10-13 08:21:00,68.2,67.0,30.18,NNE,24,2.0,3.0,96,0.00,,,0.00,WeatherCatV1.02B3,2013-10-13 13:21:00,
2013-10-13 08:26:00,68.2,67.0,30.18,NNE,21,0.0,3.0,96,0.00,,,0.00,WeatherCatV1.02B3,2013-10-13 13:26:00,
2013-10-13 08:31:00,68.2,67.0,30.18,NNW,340,0.0,1.0,96,0.00,,,0.00,WeatherCatV1.02B3,2013-10-13 13:31:00,
2013-10-13 08:36:00,68.2,67.0,30.19,South,175,0.0,0.0,96,0.00,,,0.00,WeatherCatV1.02B3,2013-10-13 13:36:00,
2013-10-13 08:41:00,68.2,67.0,30.19,NW,311,0.0,0.0,96,0.00,,,0.00,WeatherCatV1.02B3,2013-10-13 13:41:00,
2013-10-13 08:46:00,68.2,67.0,30.19,NW,323,0.0,2.0,96,0.00,,,0.00,WeatherCatV1.02B3,2013-10-13 13:46:00,
2013-10-13 08:51:00,68.3,67.1,30.19,NW,323,0.0,3.0,96,0.00,,,0.00,WeatherCatV1.02B3,2013-10-13 13:51:00,
2013-10-13 08:56:00,68.2,67.0,30.20,NW,324,0.0,1.0,96,0.00,,,0.00,WeatherCatV1.02B3,2013-10-13 13:56:00,
2013-10-13 09:01:00,68.3,67.1,30.20,NW,321,0.0,2.0,96,0.00,,,0.00,WeatherCatV1.02B3,2013-10-13 14:01:00,
2013-10-13 09:06:00,68.3,67.1,30.21,NNW,346,0.0,4.0,96,0.00,,,0.00,WeatherCatV1.02B3,2013-10-13 14:06:00,
2013-10-13 09:11:00,68.4,67.2,30.21,North,355,1.0,4.0,96,0.00,,,0.00,WeatherCatV1.02B3,2013-10-13 14:11:00,
2013-10-13 09:16:00,68.5,67.3,30.21,NNW,331,0.0,2.0,96,0.00,,,0.00,WeatherCatV1.02B3,2013-10-13 14:16:00,
2013-10-13 09:21:00,68.6,67.1,30.21,NNW,331,0.0,1.0,95,0.00,,,0.00,WeatherCatV1.02B3,2013-10-13 14:21:00,
2013-10-13 09:26:00,68.9,67.7,30.21,NNW,333,0.0,1.0,96,0.00,,,0.00,WeatherCatV1.02B3,2013-10-13 14:26:00,
2013-10-13 09:31:00,69.2,67.7,30.21,North,0,0.0,0.0,95,0.00,,,0.00,WeatherCatV1.02B3,2013-10-13 14:31:00,
2013-10-13 09:36:00,69.5,68.0,30.21,North,0,0.0,0.0,95,0.00,,,0.00,WeatherCatV1.02B3,2013-10-13 14:36:00,
2013-10-13 09:41:00,69.9,68.4,30.21,North,0,1.0,1.0,95,0.00,,,0.00,WeatherCatV1.02B3,2013-10-13 14:41:00,
2013-10-13 09:46:00,70.2,68.7,30.21,North,0,0.0,1.0,95,0.00,,,0.00,WeatherCatV1.02B3,2013-10-13 14:46:00,
2013-10-13 09:51:00,70.5,68.7,30.22,North,0,0.0,3.0,94,0.00,,,0.00,WeatherCatV1.02B3,2013-10-13 14:51:00,
2013-10-13 09:56:00,70.8,69.0,30.22,North,0,0.0,0.0,94,0.00,,,0.00,WeatherCatV1.02B3,2013-10-13 14:56:00,
2013-10-13 10:01:00,71.1,69.0,30.22,North,0,0.0,1.0,93,0.00,,,0.00,WeatherCatV1.02B3,2013-10-13 15:01:00,
2013-10-13 10:06:00,71.3,68.8,30.23,North,0,0.0,0.0,92,0.00,,,0.00,WeatherCatV1.02B3,2013-10-13 15:06:00,
2013-10-13 10:11:00,71.7,68.9,30.22,North,0,0.0,0.0,91,0.00,,,0.00,WeatherCatV1.02B3,2013-10-13 15:11:00,
2013-10-13 10:16:00,72.0,69.2,30.22,North,0,0.0,0.0,91,0.00,,,0.00,WeatherCatV1.02B3,2013-10-13 15:16:00,
2013-10-13 10:21:00,72.4,69.3,30.22,North,0,0.0,2.0,90,0.00,,,0.00,WeatherCatV1.02B3,2013-10-13 15:21:00,
2013-10-13 10:26:00,72.8,69.7,30.22,North,0,0.0,1.0,90,0.00,,,0.00,WeatherCatV1.02B3,2013-10-13 15:26:00,
2013-10-13 10:31:00,73.2,69.8,30.22,North,0,0.0,1.0,89,0.00,,,0.00,WeatherCatV1.02B3,2013-10-13 15:31:00,
2013-10-13 10:36:00,73.6,69.8,30.22,North,5,0.0,0.0,88,0.00,,,0.00,WeatherCatV1.02B3,2013-10-13 15:36:00,
2013-10-13 10:41:00,73.9,69.8,30.22,North,5,0.0,2.0,87,0.00,,,0.00,WeatherCatV1.02B3,2013-10-13 15:41:00,
2013-10-13 10:46:00,74.4,70.3,30.22,North,5,1.0,2.0,87,0.00,,,0.00,WeatherCatV1.02B3,2013-10-13 15:46:00,
2013-10-13 10:51:00,74.8,70.7,30.22,NE,35,0.0,3.0,87,0.00,,,0.00,WeatherCatV1.02B3,2013-10-13 15:51:00,
2013-10-13 10:56:00,75.1,70.6,30.22,North,0,0.0,3.0,86,0.00,,,0.00,WeatherCatV1.02B3,2013-10-13 15:56:00,
2013-10-13 11:01:00,75.3,70.5,30.22,NW,325,1.0,3.0,85,0.00,,,0.00,WeatherCatV1.02B3,2013-10-13 16:01:00,
2013-10-13 11:06:00,75.4,70.6,30.22,NNW,342,0.0,3.0,85,0.00,,,0.00,WeatherCatV1.02B3,2013-10-13 16:06:00,
2013-10-13 11:12:00,75.6,70.8,30.22,NNW,343,0.0,0.0,85,0.00,,,0.00,WeatherCatV1.02B3,2013-10-13 16:12:00,
2013-10-13 11:17:00,75.8,71.0,30.22,NNW,347,0.0,3.0,85,0.00,,,0.00,WeatherCatV1.02B3,2013-10-13 16:17:00,
2013-10-13 11:21:00,76.0,70.8,30.21,NNW,347,0.0,0.0,84,0.00,,,0.00,WeatherCatV1.02B3,2013-10-13 16:21:00,
2013-10-13 11:26:00,76.2,71.0,30.21,West,260,2.0,2.0,84,0.00,,,0.00,WeatherCatV1.02B3,2013-10-13 16:26:00,
2013-10-13 11:31:00,76.4,71.2,30.21,NNW,348,0.0,4.0,84,0.00,,,0.00,WeatherCatV1.02B3,2013-10-13 16:31:00,
2013-10-13 11:36:00,76.7,71.1,30.20,NNW,334,0.0,1.0,83,0.00,,,0.00,WeatherCatV1.02B3,2013-10-13 16:36:00,
2013-10-13 11:41:00,77.0,71.4,30.21,NNW,332,0.0,0.0,83,0.00,,,0.00,WeatherCatV1.02B3,2013-10-13 16:41:00,
2013-10-13 11:46:00,77.3,71.7,30.21,NNE,12,0.0,3.0,83,0.00,,,0.00,WeatherCatV1.02B3,2013-10-13 16:46:00,
2013-10-13 11:51:00,77.6,71.3,30.21,WNW,297,0.0,1.0,81,0.00,,,0.00,WeatherCatV1.02B3,2013-10-13 16:51:00,
2013-10-13 11:57:00,78.0,72.0,30.21,North,355,0.0,5.0,82,0.00,,,0.00,WeatherCatV1.02B3,2013-10-13 16:57:00,
2013-10-13 12:02:00,78.6,71.9,30.21,NW,315,0.0,3.0,80,0.00,,,0.00,WeatherCatV1.02B3,2013-10-13 17:02:00,
2013-10-13 12:06:00,79.1,72.0,30.21,NW,317,0.0,2.0,79,0.00,,,0.00,WeatherCatV1.02B3,2013-10-13 17:06:00,
2013-10-13 12:11:00,79.5,71.6,30.20,WSW,253,1.0,1.0,77,0.00,,,0.00,WeatherCatV1.02B3,2013-10-13 17:11:00,
2013-10-13 12:16:00,79.5,71.6,30.20,WSW,257,0.0,2.0,77,0.00,,,0.00,WeatherCatV1.02B3,2013-10-13 17:16:00,
2013-10-13 12:21:00,79.8,71.9,30.20,WSW,258,0.0,1.0,77,0.00,,,0.00,WeatherCatV1.02B3,2013-10-13 17:21:00,
2013-10-13 12:27:00,80.3,72.0,30.20,NNW,340,0.0,1.0,76,0.00,,,0.00,WeatherCatV1.02B3,2013-10-13 17:27:00,
2013-10-13 12:32:00,80.5,72.2,30.20,NNW,328,0.0,1.0,76,0.00,,,0.00,WeatherCatV1.02B3,2013-10-13 17:32:00,
2013-10-13 12:37:00,80.5,71.4,30.20,NNE,17,0.0,1.0,74,0.00,,,0.00,WeatherCatV1.02B3,2013-10-13 17:37:00,
2013-10-13 12:41:00,80.5,71.8,30.19,NNW,331,0.0,3.0,75,0.00,,,0.00,WeatherCatV1.02B3,2013-10-13 17:41:00,
2013-10-13 12:46:00,80.5,71.8,30.19,NNE,32,2.0,5.0,75,0.00,,,0.00,WeatherCatV1.02B3,2013-10-13 17:46:00,
2013-10-13 12:51:00,80.4,71.7,30.18,NNW,346,0.0,0.0,75,0.00,,,0.00,WeatherCatV1.02B3,2013-10-13 17:51:00,
2013-10-13 12:57:00,80.0,70.9,30.19,NW,306,0.0,1.0,74,0.00,,,0.00,WeatherCatV1.02B3,2013-10-13 17:57:00,
2013-10-13 13:02:00,79.7,71.1,30.19,NNW,331,0.0,2.0,75,0.00,,,0.00,WeatherCatV1.02B3,2013-10-13 18:02:00,
2013-10-13 13:07:00,79.7,71.4,30.18,NW,306,0.0,2.0,76,0.00,,,0.00,WeatherCatV1.02B3,2013-10-13 18:07:00,
2013-10-13 13:12:00,79.8,71.1,30.18,NNW,333,0.0,2.0,75,0.00,,,0.00,WeatherCatV1.02B3,2013-10-13 18:12:00,
2013-10-13 13:17:00,79.9,71.2,30.18,NW,321,0.0,1.0,75,0.00,,,0.00,WeatherCatV1.02B3,2013-10-13 18:17:00,
2013-10-13 13:22:00,80.1,70.6,30.18,NW,321,0.0,1.0,73,0.00,,,0.00,WeatherCatV1.02B3,2013-10-13 18:22:00,
2013-10-13 13:27:00,80.6,71.5,30.18,NW,323,0.0,1.0,74,0.00,,,0.00,WeatherCatV1.02B3,2013-10-13 18:27:00,
2013-10-13 13:32:00,81.0,71.1,30.17,NW,326,0.0,1.0,72,0.00,,,0.00,WeatherCatV1.02B3,2013-10-13 18:32:00,
2013-10-13 13:37:00,81.0,70.7,30.17,West,275,0.0,1.0,71,0.00,,,0.00,WeatherCatV1.02B3,2013-10-13 18:37:00,
2013-10-13 13:42:00,81.0,70.7,30.17,NNW,348,0.0,6.0,71,0.00,,,0.00,WeatherCatV1.02B3,2013-10-13 18:42:00,
2013-10-13 13:47:00,81.0,70.7,30.17,North,355,0.0,2.0,71,0.00,,,0.00,WeatherCatV1.02B3,2013-10-13 18:47:00,
2013-10-13 13:52:00,81.0,70.7,30.16,NNW,343,0.0,0.0,71,0.00,,,0.00,WeatherCatV1.02B3,2013-10-13 18:52:00,
2013-10-13 13:57:00,81.1,70.4,30.16,NNW,348,1.0,2.0,70,0.00,,,0.00,WeatherCatV1.02B3,2013-10-13 18:57:00,
2013-10-13 14:02:00,81.4,71.1,30.16,North,355,0.0,3.0,71,0.00,,,0.00,WeatherCatV1.02B3,2013-10-13 19:02:00,
2013-10-13 14:07:00,81.4,70.7,30.16,NW,316,0.0,2.0,70,0.00,,,0.00,WeatherCatV1.02B3,2013-10-13 19:07:00,
2013-10-13 14:12:00,81.6,70.4,30.15,NNE,15,0.0,4.0,69,0.00,,,0.00,WeatherCatV1.02B3,2013-10-13 19:12:00,
2013-10-13 14:17:00,81.6,70.8,30.15,North,355,0.0,2.0,70,0.00,,,0.00,WeatherCatV1.02B3,2013-10-13 19:17:00,
2013-10-13 14:22:00,81.7,70.5,30.15,North,0,0.0,3.0,69,0.00,,,0.00,WeatherCatV1.02B3,2013-10-13 19:22:00,
2013-10-13 14:27:00,81.8,70.2,30.15,NW,313,0.0,4.0,68,0.00,,,0.00,WeatherCatV1.02B3,2013-10-13 19:27:00,
2013-10-13 14:32:00,81.9,69.8,30.15,NW,325,0.0,1.0,67,0.00,,,0.00,WeatherCatV1.02B3,2013-10-13 19:32:00,
2013-10-13 14:37:00,82.0,69.9,30.15,North,355,0.0,3.0,67,0.00,,,0.00,WeatherCatV1.02B3,2013-10-13 19:37:00,
2013-10-13 14:42:00,82.0,69.9,30.15,North,355,0.0,1.0,67,0.00,,,0.00,WeatherCatV1.02B3,2013-10-13 19:42:00,
2013-10-13 14:47:00,82.0,69.5,30.15,SW,236,0.0,1.0,66,0.00,,,0.00,WeatherCatV1.02B3,2013-10-13 19:47:00,
2013-10-13 14:52:00,81.8,68.9,30.15,WSW,244,0.0,0.0,65,0.00,,,0.00,WeatherCatV1.02B3,2013-10-13 19:52:00,
2013-10-13 14:57:00,81.7,69.6,30.15,WSW,244,0.0,1.0,67,0.00,,,0.00,WeatherCatV1.02B3,2013-10-13 19:57:00,
2013-10-13 15:02:00,81.6,70.0,30.15,NW,318,0.0,3.0,68,0.00,,,0.00,WeatherCatV1.02B3,2013-10-13 20:02:00,
2013-10-13 15:07:00,81.6,70.0,30.15,North,351,2.0,3.0,68,0.00,,,0.00,WeatherCatV1.02B3,2013-10-13 20:07:00,
2013-10-13 15:12:00,81.5,69.9,30.15,NW,325,0.0,2.0,68,0.00,,,0.00,WeatherCatV1.02B3,2013-10-13 20:12:00,
2013-10-13 15:17:00,81.5,70.3,30.15,NW,319,1.0,1.0,69,0.00,,,0.00,WeatherCatV1.02B3,2013-10-13 20:17:00,
2013-10-13 15:22:00,81.4,70.2,30.15,NW,323,0.0,0.0,69,0.00,,,0.00,WeatherCatV1.02B3,2013-10-13 20:22:00,
2013-10-13 15:27:00,81.3,70.6,30.15,NNW,348,0.0,1.0,70,0.00,,,0.00,WeatherCatV1.02B3,2013-10-13 20:27:00,
2013-10-13 15:32:00,81.2,70.5,30.15,North,11,0.0,5.0,70,0.00,,,0.00,WeatherCatV1.02B3,2013-10-13 20:32:00,
2013-10-13 15:37:00,81.2,70.5,30.15,NE,54,0.0,1.0,70,0.00,,,0.00,WeatherCatV1.02B3,2013-10-13 20:37:00,
2013-10-13 15:42:00,81.2,70.9,30.15,North,0,0.0,0.0,71,0.00,,,0.00,WeatherCatV1.02B3,2013-10-13 20:42:00,
2013-10-13 15:47:00,81.3,70.6,30.15,North,0,1.0,1.0,70,0.00,,,0.00,WeatherCatV1.02B3,2013-10-13 20:47:00,
2013-10-13 15:52:00,81.3,70.6,30.14,North,0,1.0,2.0,70,0.00,,,0.00,WeatherCatV1.02B3,2013-10-13 20:52:00,
2013-10-13 15:57:00,81.3,70.6,30.14,North,0,0.0,0.0,70,0.00,,,0.00,WeatherCatV1.02B3,2013-10-13 20:57:00,
2013-10-13 16:02:00,81.4,70.7,30.14,North,0,0.0,0.0,70,0.00,,,0.00,WeatherCatV1.02B3,2013-10-13 21:02:00,
2013-10-13 16:07:00,81.4,70.2,30.14,North,0,0.0,3.0,69,0.00,,,0.00,WeatherCatV1.02B3,2013-10-13 21:07:00,
2013-10-13 16:12:00,81.4,69.8,30.14,NNE,32,0.0,0.0,68,0.00,,,0.00,WeatherCatV1.02B3,2013-10-13 21:12:00,
2013-10-13 16:17:00,81.1,70.4,30.14,NNE,32,0.0,0.0,70,0.00,,,0.00,WeatherCatV1.02B3,2013-10-13 21:17:00,
2013-10-13 16:22:00,81.1,70.4,30.14,North,5,0.0,1.0,70,0.00,,,0.00,WeatherCatV1.02B3,2013-10-13 21:22:00,
2013-10-13 16:27:00,81.2,70.9,30.14,North,5,0.0,2.0,71,0.00,,,0.00,WeatherCatV1.02B3,2013-10-13 21:27:00,
2013-10-13 16:32:00,81.7,70.9,30.14,North,11,0.0,4.0,70,0.00,,,0.00,WeatherCatV1.02B3,2013-10-13 21:32:00,
2013-10-13 16:37:00,81.7,70.5,30.14,North,9,0.0,0.0,69,0.00,,,0.00,WeatherCatV1.02B3,2013-10-13 21:37:00,
2013-10-13 16:42:00,81.4,70.2,30.14,NNE,22,0.0,0.0,69,0.00,,,0.00,WeatherCatV1.02B3,2013-10-13 21:42:00,
2013-10-13 16:47:00,81.2,70.5,30.14,NNE,22,0.0,0.0,70,0.00,,,0.00,WeatherCatV1.02B3,2013-10-13 21:47:00,
2013-10-13 16:52:00,81.1,70.4,30.14,NW,307,0.0,3.0,70,0.00,,,0.00,WeatherCatV1.02B3,2013-10-13 21:52:00,
2013-10-13 16:57:00,81.2,70.9,30.14,NW,307,0.0,0.0,71,0.00,,,0.00,WeatherCatV1.02B3,2013-10-13 21:57:00,
2013-10-13 17:02:00,81.2,70.0,30.14,NW,311,0.0,1.0,69,0.00,,,0.00,WeatherCatV1.02B3,2013-10-13 22:02:00,
2013-10-13 17:07:00,81.2,70.0,30.14,NNE,18,0.0,3.0,69,0.00,,,0.00,WeatherCatV1.02B3,2013-10-13 22:07:00,
2013-10-13 17:12:00,81.1,69.9,30.14,NNE,18,4.0,4.0,69,0.00,,,0.00,WeatherCatV1.02B3,2013-10-13 22:12:00,
2013-10-13 17:17:00,81.0,70.3,30.14,NNE,18,0.0,0.0,70,0.00,,,0.00,WeatherCatV1.02B3,2013-10-13 22:17:00,
2013-10-13 17:22:00,80.8,70.1,30.14,NNE,18,0.0,1.0,70,0.00,,,0.00,WeatherCatV1.02B3,2013-10-13 22:22:00,
2013-10-13 17:27:00,80.7,70.4,30.14,NNE,18,0.0,0.0,71,0.00,,,0.00,WeatherCatV1.02B3,2013-10-13 22:27:00,
2013-10-13 17:32:00,80.5,70.6,30.14,NNE,18,0.0,0.0,72,0.00,,,0.00,WeatherCatV1.02B3,2013-10-13 22:32:00,
2013-10-13 17:37:00,80.3,70.4,30.14,NNE,18,0.0,0.0,72,0.00,,,0.00,WeatherCatV1.02B3,2013-10-13 22:37:00,
2013-10-13 17:42:00,80.1,70.6,30.15,NNE,18,0.0,0.0,73,0.00,,,0.00,WeatherCatV1.02B3,2013-10-13 22:42:00,
2013-10-13 17:47:00,79.9,70.8,30.15,NNE,18,0.0,0.0,74,0.00,,,0.00,WeatherCatV1.02B3,2013-10-13 22:47:00,
2013-10-13 17:52:00,79.8,71.1,30.15,NNE,18,0.0,0.0,75,0.00,,,0.00,WeatherCatV1.02B3,2013-10-13 22:52:00,
2013-10-13 17:57:00,79.6,71.0,30.15,NNE,18,0.0,0.0,75,0.00,,,0.00,WeatherCatV1.02B3,2013-10-13 22:57:00,
2013-10-13 18:02:00,79.4,71.2,30.15,NNE,18,0.0,0.0,76,0.00,,,0.00,WeatherCatV1.02B3,2013-10-13 23:02:00,
2013-10-13 18:07:00,79.2,71.0,30.15,NNE,18,0.0,0.0,76,0.00,,,0.00,WeatherCatV1.02B3,2013-10-13 23:07:00,
2013-10-13 18:12:00,79.0,71.2,30.15,NNE,18,0.0,0.0,77,0.00,,,0.00,WeatherCatV1.02B3,2013-10-13 23:12:00,
2013-10-13 18:17:00,78.7,70.9,30.15,NNE,18,0.0,0.0,77,0.00,,,0.00,WeatherCatV1.02B3,2013-10-13 23:17:00,
2013-10-13 18:22:00,78.5,71.1,30.15,NNE,18,0.0,0.0,78,0.00,,,0.00,WeatherCatV1.02B3,2013-10-13 23:22:00,
2013-10-13 18:27:00,78.2,70.8,30.15,NNE,18,0.0,0.0,78,0.00,,,0.00,WeatherCatV1.02B3,2013-10-13 23:27:00,
2013-10-13 18:32:00,77.8,70.7,30.15,NNE,18,0.0,0.0,79,0.00,,,0.00,WeatherCatV1.02B3,2013-10-13 23:32:00,
2013-10-13 18:37:00,77.4,70.7,30.15,NNE,18,0.0,0.0,80,0.00,,,0.00,WeatherCatV1.02B3,2013-10-13 23:37:00,
2013-10-13 18:42:00,77.1,70.8,30.16,NNE,18,0.0,0.0,81,0.00,,,0.00,WeatherCatV1.02B3,2013-10-13 23:42:00,
2013-10-13 18:47:00,76.8,70.5,30.16,NNE,18,0.0,0.0,81,0.00,,,0.00,WeatherCatV1.02B3,2013-10-13 23:47:00,
2013-10-13 18:52:00,76.6,70.3,30.16,NNE,18,0.0,0.0,81,0.00,,,0.00,WeatherCatV1.02B3,2013-10-13 23:52:00,
2013-10-13 18:57:00,76.4,70.5,30.16,NNE,18,0.0,0.0,82,0.00,,,0.00,WeatherCatV1.02B3,2013-10-13 23:57:00,
2013-10-13 19:02:00,76.2,70.6,30.16,NNE,18,0.0,0.0,83,0.00,,,0.00,WeatherCatV1.02B3,2013-10-14 00:02:00,
2013-10-13 19:07:00,76.0,70.4,30.16,NNE,18,0.0,0.0,83,0.00,,,0.00,WeatherCatV1.02B3,2013-10-14 00:07:00,
2013-10-13 19:12:00,75.8,70.3,30.16,NNE,18,0.0,0.0,83,0.00,,,0.00,WeatherCatV1.02B3,2013-10-14 00:12:00,
2013-10-13 19:17:00,75.7,70.2,30.16,NNE,18,0.0,0.0,83,0.00,,,0.00,WeatherCatV1.02B3,2013-10-14 00:17:00,
2013-10-13 19:22:00,75.5,70.3,30.16,NNE,18,0.0,0.0,84,0.00,,,0.00,WeatherCatV1.02B3,2013-10-14 00:22:00,
2013-10-13 19:27:00,75.3,70.1,30.16,NNE,18,0.0,0.0,84,0.00,,,0.00,WeatherCatV1.02B3,2013-10-14 00:27:00,
2013-10-13 19:32:00,75.1,69.9,30.17,NNE,18,0.0,0.0,84,0.00,,,0.00,WeatherCatV1.02B3,2013-10-14 00:32:00,
2013-10-13 19:37:00,75.0,70.2,30.17,NNE,18,0.0,0.0,85,0.00,,,0.00,WeatherCatV1.02B3,2013-10-14 00:37:00,
2013-10-13 19:42:00,74.9,70.1,30.17,NNE,18,0.0,0.0,85,0.00,,,0.00,WeatherCatV1.02B3,2013-10-14 00:42:00,
2013-10-13 19:47:00,74.8,70.0,30.17,NNE,18,0.0,0.0,85,0.00,,,0.00,WeatherCatV1.02B3,2013-10-14 00:47:00,
2013-10-13 19:52:00,74.8,70.3,30.17,NNE,18,0.0,0.0,86,0.00,,,0.00,WeatherCatV1.02B3,2013-10-14 00:52:00,
2013-10-13 19:57:00,74.7,70.2,30.17,NNE,18,0.0,0.0,86,0.00,,,0.00,WeatherCatV1.02B3,2013-10-14 00:57:00,
2013-10-13 20:02:00,74.6,70.1,30.17,NNE,18,0.0,0.0,86,0.00,,,0.00,WeatherCatV1.02B3,2013-10-14 01:02:00,
2013-10-13 20:07:00,74.6,70.1,30.17,NNE,18,0.0,0.0,86,0.00,,,0.00,WeatherCatV1.02B3,2013-10-14 01:07:00,
2013-10-13 20:12:00,74.5,70.4,30.17,NNE,18,0.0,0.0,87,0.00,,,0.00,WeatherCatV1.02B3,2013-10-14 01:12:00,
2013-10-13 20:17:00,74.4,70.3,30.17,NNE,18,0.0,0.0,87,0.00,,,0.00,WeatherCatV1.02B3,2013-10-14 01:17:00,
2013-10-13 20:22:00,74.4,70.3,30.18,NNE,18,0.0,0.0,87,0.00,,,0.00,WeatherCatV1.02B3,2013-10-14 01:22:00,
2013-10-13 20:27:00,74.3,70.2,30.18,NNE,18,0.0,0.0,87,0.00,,,0.00,WeatherCatV1.02B3,2013-10-14 01:27:00,
2013-10-13 20:32:00,74.2,70.4,30.18,NNE,18,0.0,0.0,88,0.00,,,0.00,WeatherCatV1.02B3,2013-10-14 01:32:00,
2013-10-13 20:37:00,74.2,70.1,30.18,NNE,18,0.0,0.0,87,0.00,,,0.00,WeatherCatV1.02B3,2013-10-14 01:37:00,
2013-10-13 20:42:00,74.1,70.0,30.18,NNE,18,0.0,0.0,87,0.00,,,0.00,WeatherCatV1.02B3,2013-10-14 01:42:00,
2013-10-13 20:47:00,74.1,70.0,30.18,NNE,18,0.0,0.0,87,0.00,,,0.00,WeatherCatV1.02B3,2013-10-14 01:47:00,
2013-10-13 20:52:00,74.0,69.9,30.18,NNE,18,0.0,0.0,87,0.00,,,0.00,WeatherCatV1.02B3,2013-10-14 01:52:00,
2013-10-13 20:57:00,74.0,69.9,30.18,NNE,18,0.0,0.0,87,0.00,,,0.00,WeatherCatV1.02B3,2013-10-14 01:57:00,
2013-10-13 21:02:00,73.9,69.8,30.19,NNE,18,0.0,0.0,87,0.00,,,0.00,WeatherCatV1.02B3,2013-10-14 02:02:00,
2013-10-13 21:07:00,73.9,69.8,30.19,NNE,18,0.0,0.0,87,0.00,,,0.00,WeatherCatV1.02B3,2013-10-14 02:07:00,
2013-10-13 21:12:00,73.8,69.7,30.18,NNE,18,0.0,0.0,87,0.00,,,0.00,WeatherCatV1.02B3,2013-10-14 02:12:00,
2013-10-13 21:17:00,73.7,69.6,30.19,NNE,18,0.0,1.0,87,0.00,,,0.00,WeatherCatV1.02B3,2013-10-14 02:17:00,
2013-10-13 21:22:00,73.6,69.5,30.19,NNE,18,0.0,0.0,87,0.00,,,0.00,WeatherCatV1.02B3,2013-10-14 02:22:00,
2013-10-13 21:27:00,73.5,69.4,30.19,NNE,18,0.0,0.0,87,0.00,,,0.00,WeatherCatV1.02B3,2013-10-14 02:27:00,
2013-10-13 21:32:00,73.4,69.3,30.19,NNE,18,0.0,0.0,87,0.00,,,0.00,WeatherCatV1.02B3,2013-10-14 02:32:00,
2013-10-13 21:37:00,73.3,69.2,30.19,NNE,18,0.0,0.0,87,0.00,,,0.00,WeatherCatV1.02B3,2013-10-14 02:37:00,
2013-10-13 21:42:00,73.2,68.8,30.20,NE,49,3.0,3.0,86,0.00,,,0.00,WeatherCatV1.02B3,2013-10-14 02:42:00,
2013-10-13 21:47:00,73.1,68.7,30.20,North,0,0.0,1.0,86,0.00,,,0.00,WeatherCatV1.02B3,2013-10-14 02:47:00,
2013-10-13 21:52:00,73.0,68.6,30.20,North,9,0.0,1.0,86,0.00,,,0.00,WeatherCatV1.02B3,2013-10-14 02:52:00,
2013-10-13 21:57:00,72.9,68.5,30.20,North,9,0.0,0.0,86,0.00,,,0.00,WeatherCatV1.02B3,2013-10-14 02:57:00,
2013-10-13 22:02:00,72.8,68.4,30.20,North,9,0.0,0.0,86,0.00,,,0.00,WeatherCatV1.02B3,2013-10-14 03:02:00,
2013-10-13 22:07:00,72.7,68.3,30.20,NE,36,0.0,3.0,86,0.00,,,0.00,WeatherCatV1.02B3,2013-10-14 03:07:00,
2013-10-13 22:12:00,72.5,68.4,30.20,NE,48,0.0,5.0,87,0.00,,,0.00,WeatherCatV1.02B3,2013-10-14 03:12:00,
2013-10-13 22:17:00,72.4,68.3,30.20,NE,48,0.0,0.0,87,0.00,,,0.00,WeatherCatV1.02B3,2013-10-14 03:17:00,
2013-10-13 22:22:00,72.3,68.2,30.20,NE,48,0.0,1.0,87,0.00,,,0.00,WeatherCatV1.02B3,2013-10-14 03:22:00,
2013-10-13 22:27:00,72.2,68.1,30.20,NE,48,0.0,0.0,87,0.00,,,0.00,WeatherCatV1.02B3,2013-10-14 03:27:00,
2013-10-13 22:32:00,72.1,68.0,30.20,NE,48,0.0,0.0,87,0.00,,,0.00,WeatherCatV1.02B3,2013-10-14 03:32:00,
2013-10-13 22:37:00,71.9,67.8,30.20,NE,48,0.0,0.0,87,0.00,,,0.00,WeatherCatV1.02B3,2013-10-14 03:37:00,
2013-10-13 22:42:00,71.8,67.7,30.20,North,0,0.0,0.0,87,0.00,,,0.00,WeatherCatV1.02B3,2013-10-14 03:42:00,
2013-10-13 22:47:00,71.7,67.9,30.20,North,5,0.0,0.0,88,0.00,,,0.00,WeatherCatV1.02B3,2013-10-14 03:47:00,
2013-10-13 22:52:00,71.6,67.8,30.20,North,5,0.0,0.0,88,0.00,,,0.00,WeatherCatV1.02B3,2013-10-14 03:52:00,
2013-10-13 22:57:00,71.4,67.7,30.20,NE,48,0.0,0.0,88,0.00,,,0.00,WeatherCatV1.02B3,2013-10-14 03:57:00,
2013-10-13 23:01:00,71.3,67.6,30.20,NE,48,1.0,1.0,88,0.00,,,0.00,WeatherCatV1.02B3,2013-10-14 04:01:00,
2013-10-13 23:06:00,71.2,67.5,30.20,NE,48,0.0,0.0,88,0.00,,,0.00,WeatherCatV1.02B3,2013-10-14 04:06:00,
2013-10-13 23:11:00,71.0,67.3,30.19,NE,48,0.0,0.0,88,0.00,,,0.00,WeatherCatV1.02B3,2013-10-14 04:11:00,
2013-10-13 23:16:00,70.9,67.2,30.19,ENE,61,1.0,2.0,88,0.00,,,0.00,WeatherCatV1.02B3,2013-10-14 04:16:00,
2013-10-13 23:21:00,70.8,67.1,30.19,ENE,61,0.0,0.0,88,0.00,,,0.00,WeatherCatV1.02B3,2013-10-14 04:21:00,
2013-10-13 23:26:00,70.7,67.0,30.19,ENE,61,0.0,0.0,88,0.00,,,0.00,WeatherCatV1.02B3,2013-10-14 04:26:00,
2013-10-13 23:31:00,70.6,66.9,30.19,ENE,61,0.0,0.0,88,0.00,,,0.00,WeatherCatV1.02B3,2013-10-14 04:31:00,
2013-10-13 23:36:00,70.5,66.8,30.19,ENE,61,0.0,0.0,88,0.00,,,0.00,WeatherCatV1.02B3,2013-10-14 04:36:00,
2013-10-13 23:41:00,70.4,66.7,30.18,ENE,61,0.0,0.0,88,0.00,,,0.00,WeatherCatV1.02B3,2013-10-14 04:41:00,
2013-10-13 23:46:00,70.3,66.6,30.18,ENE,61,0.0,1.0,88,0.00,,,0.00,WeatherCatV1.02B3,2013-10-14 04:46:00,
2013-10-13 23:51:00,70.2,66.5,30.18,ENE,61,0.0,0.0,88,0.00,,,0.00,WeatherCatV1.02B3,2013-10-14 04:51:00,
2013-10-13 23:56:00,70.1,66.4,30.18,ENE,61,0.0,0.0,88,0.00,,,0.00,WeatherCatV1.02B3,2013-10-14 04:56:00,